Time,TemperatureF,DewpointF,PressureIn,WindDirection,WindDirectionDegrees,WindSpeedMPH,WindSpeedGustMPH,Humidity,HourlyPrecipIn,Conditions,Clouds,dailyrainin,SolarRadiationWatts/m^2,SoftwareType,DateUTC
2013-07-26 00:02:00,73.0,19.0,-100.00,ENE,61,7.0,10.0,13,0.00,,,0.00,1.000000,,2013-07-26 07:02:00,
2013-07-26 00:32:00,73.0,19.0,-100.00,ENE,61,7.0,10.0,13,0.00,,,0.00,1.000000,,2013-07-26 07:32:00,
2013-07-26 00:43:00,73.0,19.0,-100.00,ENE,61,7.0,10.0,13,0.00,,,0.00,1.000000,,2013-07-26 07:43:00,
2013-07-26 00:53:00,73.0,19.0,-100.00,ENE,61,7.0,10.0,13,0.00,,,0.00,1.000000,,2013-07-26 07:53:00,
2013-07-26 07:43:00,71.0,21.0,-100.00,West,263,3.0,5.0,15,0.00,,,0.00,75.000000,,2013-07-26 14:43:00,
2013-07-26 08:33:00,75.0,24.0,-100.00,West,260,4.0,9.0,15,0.00,,,0.00,234.000000,,2013-07-26 15:33:00,
2013-07-26 08:43:00,75.0,24.0,-100.00,West,260,4.0,9.0,15,0.00,,,0.00,234.000000,,2013-07-26 15:43:00,
2013-07-26 08:53:00,75.0,24.0,-100.00,West,260,4.0,9.0,15,0.00,,,0.00,234.000000,,2013-07-26 15:53:00,
2013-07-26 09:02:00,82.0,22.0,-100.00,West,272,4.0,7.0,11,0.00,,,0.00,409.000000,,2013-07-26 16:02:00,
2013-07-26 09:32:00,82.0,22.0,-100.00,West,272,4.0,7.0,11,0.00,,,0.00,409.000000,,2013-07-26 16:32:00,
2013-07-26 09:43:00,82.0,22.0,-100.00,West,272,4.0,7.0,11,0.00,,,0.00,409.000000,,2013-07-26 16:43:00,
2013-07-26 09:54:00,82.0,22.0,-100.00,West,272,4.0,7.0,11,0.00,,,0.00,409.000000,,2013-07-26 16:54:00,
2013-07-26 13:32:00,91.0,11.0,-100.00,North,352,10.0,19.0,5,0.00,,,0.00,726.000000,,2013-07-26 20:32:00,
2013-07-26 13:43:00,91.0,11.0,-100.00,North,352,10.0,19.0,5,0.00,,,0.00,726.000000,,2013-07-26 20:43:00,
2013-07-26 13:53:00,91.0,11.0,-100.00,North,352,10.0,19.0,5,0.00,,,0.00,726.000000,,2013-07-26 20:53:00,
2013-07-26 14:01:00,91.0,11.0,-100.00,North,352,10.0,19.0,5,0.00,,,0.00,726.000000,,2013-07-26 21:01:00,
2013-07-26 15:02:00,93.0,20.0,-100.00,North,350,8.0,17.0,7,0.00,,,0.00,777.000000,,2013-07-26 22:02:00,
2013-07-26 15:33:00,93.0,20.0,-100.00,North,350,8.0,17.0,7,0.00,,,0.00,777.000000,,2013-07-26 22:33:00,
2013-07-26 15:43:00,93.0,20.0,-100.00,North,350,8.0,17.0,7,0.00,,,0.00,777.000000,,2013-07-26 22:43:00,
2013-07-26 15:53:00,93.0,20.0,-100.00,North,350,8.0,17.0,7,0.00,,,0.00,777.000000,,2013-07-26 22:53:00,
2013-07-26 16:32:00,95.0,21.0,-100.00,North,357,9.0,17.0,7,0.00,,,0.00,680.000000,,2013-07-26 23:32:00,
2013-07-26 16:43:00,95.0,21.0,-100.00,North,357,9.0,17.0,7,0.00,,,0.00,680.000000,,2013-07-26 23:43:00,
2013-07-26 16:53:00,95.0,21.0,-100.00,North,357,9.0,17.0,7,0.00,,,0.00,680.000000,,2013-07-26 23:53:00,
2013-07-26 17:01:00,95.0,21.0,-100.00,North,357,9.0,17.0,7,0.00,,,0.00,680.000000,,2013-07-27 00:01:00,
2013-07-26 18:02:00,90.0,24.0,-100.00,North,11,14.0,21.0,9,0.00,,,0.00,520.000000,,2013-07-27 01:02:00,
2013-07-26 18:32:00,90.0,24.0,-100.00,North,11,14.0,21.0,9,0.00,,,0.00,520.000000,,2013-07-27 01:32:00,
2013-07-26 18:44:00,90.0,24.0,-100.00,North,11,14.0,21.0,9,0.00,,,0.00,520.000000,,2013-07-27 01:44:00,
2013-07-26 18:53:00,90.0,24.0,-100.00,North,11,14.0,21.0,9,0.00,,,0.00,520.000000,,2013-07-27 01:53:00,
2013-07-26 19:02:00,86.0,21.0,-100.00,North,5,14.0,21.0,9,0.00,,,-99.99,339.000000,,2013-07-27 02:02:00,
2013-07-26 19:32:00,86.0,21.0,-100.00,North,5,14.0,21.0,9,0.00,,,-99.99,339.000000,,2013-07-27 02:32:00,
2013-07-26 19:43:00,86.0,21.0,-100.00,North,5,14.0,21.0,9,0.00,,,-99.99,339.000000,,2013-07-27 02:43:00,
2013-07-26 19:53:00,86.0,21.0,-100.00,North,5,14.0,21.0,9,0.00,,,-99.99,339.000000,,2013-07-27 02:53:00,
2013-07-26 20:02:00,81.0,24.0,-100.00,NNE,28,14.0,23.0,12,0.00,,,0.00,145.000000,,2013-07-27 03:02:00,
2013-07-26 20:33:00,81.0,24.0,-100.00,NNE,28,14.0,23.0,12,0.00,,,0.00,145.000000,,2013-07-27 03:33:00,
2013-07-26 20:44:00,81.0,24.0,-100.00,NNE,28,14.0,23.0,12,0.00,,,0.00,145.000000,,2013-07-27 03:44:00,
2013-07-26 20:52:00,81.0,24.0,-100.00,NNE,28,14.0,23.0,12,0.00,,,0.00,145.000000,,2013-07-27 03:52:00,
2013-07-26 21:32:00,76.0,29.0,-100.00,NNE,20,12.0,23.0,18,0.00,,,0.00,26.000000,,2013-07-27 04:32:00,
2013-07-26 21:43:00,76.0,29.0,-100.00,NNE,20,12.0,23.0,18,0.00,,,0.00,26.000000,,2013-07-27 04:43:00,
2013-07-26 21:53:00,76.0,29.0,-100.00,NNE,20,12.0,23.0,18,0.00,,,0.00,26.000000,,2013-07-27 04:53:00,
2013-07-26 22:01:00,76.0,29.0,-100.00,NNE,20,12.0,23.0,18,0.00,,,0.00,26.000000,,2013-07-27 05:01:00,
2013-07-26 22:02:00,72.0,30.0,-100.00,ENE,57,9.0,16.0,21,0.00,,,0.00,1.000000,,2013-07-27 05:02:00,
2013-07-26 22:33:00,72.0,30.0,-100.00,ENE,57,9.0,16.0,21,0.00,,,0.00,1.000000,,2013-07-27 05:33:00,
2013-07-26 22:43:00,72.0,30.0,-100.00,ENE,57,9.0,16.0,21,0.00,,,0.00,1.000000,,2013-07-27 05:43:00,
2013-07-26 22:52:00,72.0,30.0,-100.00,ENE,57,9.0,16.0,21,0.00,,,0.00,1.000000,,2013-07-27 05:52:00,
2013-07-26 23:02:00,69.0,32.0,-100.00,East,100,8.0,15.0,25,0.00,,,0.00,1.000000,,2013-07-27 06:02:00,
2013-07-26 23:33:00,69.0,32.0,-100.00,East,100,8.0,15.0,25,0.00,,,0.00,1.000000,,2013-07-27 06:33:00,
2013-07-26 23:43:00,69.0,32.0,-100.00,East,100,8.0,15.0,25,0.00,,,0.00,1.000000,,2013-07-27 06:43:00,
2013-07-26 23:52:00,69.0,32.0,-100.00,East,100,8.0,15.0,25,0.00,,,0.00,1.000000,,2013-07-27 06:52:00,